[[{"header":{"parameterUnit":"m.s-1","parameterCategory":1,"la1":30.2991,"la2":30.254,"lo1":-89.0895,"lo2":-89.0444,"dy":0.0017,"dx":0.0017,"nx":28,"ny":28,"refTime":"2024-09-28T03:00:00:Z","depth":0,"parameterNumber":2,"parameterNumberName":"U-component_of_WINDS"},"data":[0,0,0,0,0,0,0,0,0,0,0,0,0,0,0,0,0,0,0,0,0,0,0,0,0,0,0,0,0,0,0,0,0,0,0,0,0,0,0,0,0,0,0,0,0,0,0,0,0,0,0,0,0,0,0,0,0,0,3.9176,3.9179,0,3.9419,3.9422,3.9425,3.9416,3.9413,3.9409,3.9406,3.9662,3.9671,3.9681,0,0,0,0,0,0,0,0,0,0,0,0,0,3.8707,3.8716,3.9176,3.9179,3.9182,3.9419,3.9422,3.9426,3.9417,3.9413,3.9408,3.9404,3.9658,3.967,3.9682,0,0,0,0,0,0,0,0,0,0,0,0,0,3.8927,3.8719,3.9175,3.9206,3.9211,3.9418,3.9423,3.9427,3.9418,3.9412,3.9407,3.9403,3.9655,3.9669,3.9684,3.9879,0,0,3.973,3.9736,0,0,0,0,0,0,0,0,3.8915,3.8944,3.9198,3.9204,3.921,3.9382,3.9351,3.9579,3.9419,3.9339,3.9406,3.94,3.9573,3.9595,3.9652,3.9891,3.9902,3.9731,3.974,3.9747,3.9751,0,0,0,0,0,0,0,3.8899,3.8934,3.9272,3.9202,3.9209,3.9209,3.9234,3.9394,3.9482,3.9346,3.9346,3.9374,3.9576,3.9637,3.9658,3.9906,3.9731,3.9744,3.9753,3.9759,4.0315,4.0321,0,0,0,0,0,0,3.8877,3.8921,3.9265,3.928,3.9047,3.9221,3.925,3.9332,3.948,3.9498,3.9378,3.9373,3.9614,3.964,3.9667,3.9903,3.9746,3.976,3.9769,4.031,4.0317,4.0323,0,0,0,0,0,0,3.8867,3.8908,3.9255,3.9101,3.9145,3.9235,3.9327,3.934,3.9401,3.9505,3.9521,3.9425,3.9611,3.9646,3.9825,3.9912,3.9767,3.9781,4.0303,4.0312,4.032,4.0379,0,0,0,0,0,0,3.8853,3.8904,3.8978,3.9102,3.9153,3.9408,3.9333,3.9348,3.9426,3.9422,3.9553,3.957,3.961,3.9803,3.984,3.993,3.9793,4.0296,4.0307,4.0317,4.0369,4.0388,4.0404,0,0,0,0,0,3.8837,3.8987,3.8982,3.9023,3.9247,3.9413,3.9442,3.9483,3.9433,3.9509,3.9575,3.9566,3.9897,3.9821,3.9863,3.9959,4.029,4.0304,4.0316,4.0362,4.0385,4.0404,0,0,0,0,0,0,3.8873,3.9003,3.9,3.9194,3.9292,3.9411,3.9508,3.9507,3.9623,3.9614,3.9662,3.9692,3.9871,3.9934,3.9848,4.0155,4.0087,4.0109,4.0107,4.013,4.0147,4.0128,3.9805,0,0,0,0,0,3.8903,3.9025,3.9134,3.9295,3.9344,3.9417,3.9491,3.9514,3.9619,3.9661,3.9741,3.9844,3.9971,4.0055,4.0178,4.0379,4.0407,4.0465,4.0482,4.0496,4.0515,4.0624,4.0651,4.0366,4.0366,4.0365,0,0,3.8967,3.9054,3.9129,3.9304,3.9383,3.9509,3.9453,3.959,3.9684,3.9683,3.9856,3.9918,4.0037,4.0228,4.0316,4.0285,4.06,4.0513,4.0523,4.0534,4.064,4.0667,4.0691,4.0375,4.0373,4.0372,0,0,3.9149,3.9227,3.9368,3.9448,3.9567,3.9615,3.9648,3.9768,3.9808,3.9983,3.9984,4.0098,4.0317,4.0401,4.0472,4.0684,4.0679,4.0723,4.0814,4.092,4.0943,4.0963,4.1037,4.1063,4.0741,4.0741,4.0741,0,3.9214,3.9403,3.9442,3.9579,3.9656,3.9657,3.9802,3.9878,4.0032,4.0086,4.0049,4.0321,4.0402,4.0611,4.0662,4.0721,4.0761,4.0708,4.0936,4.0957,4.0976,4.1048,4.1076,4.0745,4.0745,4.0744,4.0744,0,3.9477,3.9608,3.9709,3.9854,3.9943,4.0083,4.0144,4.0229,4.0244,4.0296,4.0473,4.057,4.0711,4.0763,4.0781,4.0975,4.0952,4.0925,4.0858,4.1007,4.1075,4.1103,4.0752,4.075,4.0749,4.0748,0,0,3.9688,3.9852,3.9888,3.9953,4.0084,4.0187,4.0328,4.0464,4.0535,4.0642,4.0761,4.0945,4.092,4.1001,4.1028,4.1121,4.1281,4.1083,4.1086,4.1115,4.15,4.1519,4.155,4.1279,4.1284,4.1288,4.149,0,3.9882,4.0128,4.0166,4.0384,4.0505,4.0508,4.063,4.0725,4.0777,4.0889,4.0947,4.1076,4.1034,4.1083,4.1176,4.1242,4.1359,4.1228,4.139,4.1396,4.1359,4.1585,4.1606,4.1791,4.1517,4.1521,4.1525,0,4.0141,4.0251,4.0479,4.0592,4.0645,4.0753,4.088,4.0987,4.1094,4.1126,4.1215,4.123,4.1377,4.1304,4.1506,4.1416,4.1485,4.1528,4.1536,4.1552,4.1468,4.1606,4.1851,4.1878,4.1567,4.1564,4.1561,0,4.027,4.0476,4.0639,4.0695,4.0831,4.0907,4.0968,4.107,4.1149,4.1261,4.1312,4.1441,4.1511,4.161,4.166,4.1603,4.1859,4.1791,4.189,4.1888,4.1943,4.1939,4.2201,4.199,4.1989,4.1989,4.1988,0,4.0482,4.0621,4.0698,4.0798,4.0954,4.0998,4.1152,4.1211,4.1301,4.1413,4.1425,4.1531,4.1591,4.1706,4.1746,4.1907,4.1939,4.1969,4.1978,4.1967,4.1963,4.2012,4.2,4.1996,4.1994,4.1993,4.1992,0,4.0653,4.071,4.0887,4.1,4.1032,4.1142,4.124,4.1338,4.1389,4.1531,4.1567,4.1648,4.1783,4.1843,4.2011,4.2038,4.2221,4.2222,4.2184,4.2187,4.2282,4.2271,4.2584,4.2627,4.2388,4.239,4.2392,0,4.0783,4.089,4.1014,4.1089,4.1151,4.1272,4.1351,4.1398,4.1481,4.161,4.1693,4.1827,4.1938,4.2154,4.2229,4.2358,4.236,4.2461,4.238,4.2365,4.236,4.2352,4.2363,4.2476,4.2478,4.248,4.2481,0,4.1009,4.1031,4.1144,4.1267,4.1361,4.1461,4.1559,4.162,4.1682,4.1775,4.1912,4.1997,4.2167,4.2301,4.2433,4.2498,4.2501,4.2506,4.2536,4.2525,4.2498,4.2513,4.2223,4.2499,4.2497,4.2496,4.2495,4.2494,4.1163,4.1257,4.1358,4.1483,4.1561,4.1652,4.1748,4.181,4.1925,4.2064,4.2086,4.2232,4.2337,4.2514,4.2583,4.2699,4.2675,4.2718,4.2729,4.2738,4.2743,4.2481,4.2724,4.2723,4.2723,4.2723,4.2722,0,4.1387,4.1452,4.1567,4.1701,4.18,4.1792,4.1899,4.1983,4.211,4.2206,4.2313,4.247,4.26,4.2684,4.2816,4.2892,4.2897,4.2925,4.2919,4.2934,4.2758,4.2719,4.2919,4.2919,4.2919,4.2919,4.2919,4.2919,4.1516,4.1674,4.1708,4.1905,4.197,4.2111,4.2172,4.2256,4.2332,4.2506,4.2613,4.2666,4.2758,4.2895,4.3014,4.3036,4.3083,4.3112,4.3133,4.2967,4.2946,4.2927,4.289,4.3123,4.3123,4.3298,4.33,4.3301]},{"header":{"parameterUnit":"m.s-1","parameterCategory":1,"la1":30.2991,"la2":30.254,"lo1":-89.0895,"lo2":-89.0444,"dy":0.0017,"dx":0.0017,"nx":28,"ny":28,"refTime":"2024-09-28T03:00:00:Z","depth":0,"parameterNumber":3,"parameterNumberName":"V-component_of_WINDS"},"data":[0,0,0,0,0,0,0,0,0,0,0,0,0,0,0,0,0,0,0,0,0,0,0,0,0,0,0,0,0,0,0,0,0,0,0,0,0,0,0,0,0,0,0,0,0,0,0,0,0,0,0,0,0,0,0,0,0,0,1.5397,1.5397,0,1.5341,1.534,1.534,1.5288,1.5288,1.5287,1.5286,1.5227,1.5226,1.5225,0,0,0,0,0,0,0,0,0,0,0,0,0,1.5458,1.5457,1.5397,1.5397,1.5396,1.5341,1.534,1.534,1.5288,1.5288,1.5287,1.5286,1.5227,1.5226,1.5225,0,0,0,0,0,0,0,0,0,0,0,0,0,1.542,1.5457,1.5398,1.5364,1.536,1.5341,1.534,1.5339,1.5288,1.5288,1.5287,1.5286,1.5228,1.5226,1.5225,1.5234,0,0,1.522,1.5219,0,0,0,0,0,0,0,0,1.5422,1.5417,1.5369,1.5366,1.5362,1.5321,1.534,1.5304,1.5289,1.5316,1.5286,1.5285,1.5259,1.5255,1.5246,1.5231,1.5229,1.522,1.5219,1.5218,1.5218,0,0,0,0,0,0,0,1.5424,1.5419,1.5375,1.5369,1.5364,1.5351,1.5344,1.5333,1.5293,1.5313,1.5309,1.5304,1.5257,1.5248,1.5244,1.5228,1.522,1.5219,1.5218,1.5217,1.5216,1.5216,0,0,0,0,0,0,1.5433,1.5422,1.5377,1.5373,1.539,1.535,1.5343,1.5335,1.5293,1.5286,1.5304,1.5301,1.5251,1.5246,1.5242,1.5249,1.5218,1.5217,1.5216,1.5215,1.5216,1.5217,0,0,0,0,0,0,1.5434,1.5429,1.5379,1.5397,1.5389,1.535,1.5342,1.5334,1.5325,1.5286,1.5279,1.5303,1.525,1.5244,1.5236,1.5246,1.5216,1.5215,1.5214,1.5215,1.5216,1.5264,0,0,0,0,0,0,1.5436,1.543,1.5434,1.5397,1.5388,1.5375,1.5342,1.5334,1.5323,1.5319,1.5283,1.5276,1.5249,1.5239,1.5235,1.5244,1.5214,1.5213,1.5214,1.5216,1.5262,1.5267,1.5272,0,0,0,0,0,1.5438,1.545,1.5434,1.5429,1.5393,1.5376,1.5371,1.534,1.5324,1.5327,1.5302,1.5277,1.5246,1.5238,1.5233,1.5242,1.5212,1.5214,1.5216,1.5259,1.5266,1.5272,0,0,0,0,0,0,1.5488,1.5444,1.5427,1.5427,1.5406,1.5367,1.537,1.5348,1.533,1.5327,1.5288,1.528,1.5276,1.5258,1.5251,1.5248,1.5225,1.5226,1.526,1.5266,1.5271,1.5276,1.5213,0,0,0,0,0,1.55,1.549,1.5452,1.5455,1.5446,1.541,1.5402,1.5379,1.5355,1.5346,1.532,1.5297,1.5282,1.5273,1.5257,1.5258,1.5249,1.5262,1.5267,1.5271,1.5273,1.5271,1.5276,1.5223,1.5223,1.5223,0,0,1.5522,1.5497,1.5493,1.5465,1.5446,1.5436,1.5403,1.5394,1.5387,1.5344,1.5335,1.5315,1.5287,1.5284,1.5281,1.5269,1.5285,1.5274,1.5278,1.5277,1.5273,1.5278,1.5283,1.5225,1.5224,1.5224,0,0,1.5559,1.5539,1.5539,1.5521,1.5492,1.5468,1.5468,1.5433,1.5418,1.5409,1.5376,1.5366,1.5341,1.5322,1.5309,1.5336,1.5313,1.5332,1.5359,1.5357,1.5361,1.5365,1.5374,1.5378,1.5334,1.5334,1.5334,0,1.559,1.5576,1.5542,1.5535,1.5523,1.5485,1.5484,1.5467,1.5435,1.5427,1.5413,1.538,1.5359,1.535,1.5356,1.5347,1.5345,1.5336,1.5364,1.5367,1.5369,1.5377,1.5381,1.5336,1.5336,1.5336,1.5335,0,1.5615,1.5606,1.5609,1.5579,1.5567,1.5563,1.5528,1.552,1.5498,1.5475,1.5464,1.5437,1.5414,1.541,1.5389,1.5397,1.5391,1.5371,1.5347,1.5378,1.5384,1.5387,1.534,1.5339,1.5338,1.5338,0,0,1.5683,1.5634,1.5635,1.5621,1.5586,1.5577,1.5571,1.5549,1.5542,1.552,1.5513,1.5492,1.5474,1.5459,1.5435,1.5433,1.5456,1.5413,1.5412,1.5422,1.5462,1.5477,1.5481,1.5439,1.544,1.544,1.5464,0,1.5713,1.5701,1.567,1.5667,1.5657,1.5619,1.5613,1.5591,1.5568,1.5555,1.553,1.5516,1.5493,1.5483,1.548,1.5454,1.5463,1.5451,1.5432,1.5431,1.544,1.5485,1.5501,1.5525,1.5467,1.5467,1.5468,0,1.5748,1.5729,1.5725,1.5689,1.5684,1.5679,1.5656,1.5644,1.5617,1.5601,1.5584,1.5557,1.5547,1.5525,1.551,1.5503,1.5492,1.5478,1.5478,1.5475,1.5452,1.5483,1.5532,1.5536,1.5472,1.5471,1.5471,0,1.5797,1.577,1.5764,1.5753,1.5711,1.5709,1.5691,1.5663,1.5651,1.563,1.5622,1.56,1.5588,1.5571,1.5538,1.5525,1.5526,1.5502,1.5511,1.5512,1.5514,1.5514,1.5562,1.5507,1.5507,1.5507,1.5507,0,1.5834,1.5833,1.5785,1.5782,1.5779,1.5742,1.574,1.5718,1.5693,1.5684,1.5649,1.5641,1.5598,1.5584,1.5559,1.5549,1.5544,1.553,1.5523,1.5533,1.5535,1.5526,1.5523,1.5508,1.5508,1.5508,1.5508,0,1.5889,1.5857,1.5848,1.5809,1.5799,1.5798,1.5764,1.5759,1.5734,1.5722,1.5717,1.5678,1.566,1.5625,1.5597,1.558,1.5576,1.5564,1.5585,1.5581,1.5593,1.5592,1.5636,1.564,1.5584,1.5584,1.5585,0,1.5915,1.5913,1.5874,1.5865,1.5849,1.5836,1.5823,1.5787,1.5775,1.5743,1.5741,1.572,1.5701,1.5674,1.5642,1.562,1.5607,1.5624,1.5603,1.5613,1.5607,1.5607,1.5606,1.5629,1.563,1.563,1.5631,0,1.5964,1.5948,1.5932,1.5911,1.5897,1.5878,1.5857,1.5851,1.5809,1.5798,1.5779,1.5765,1.5736,1.5715,1.5688,1.5668,1.5642,1.5637,1.5638,1.5649,1.5661,1.5654,1.5598,1.5637,1.5636,1.5636,1.5635,1.5635,1.6005,1.6001,1.5973,1.5956,1.5936,1.5917,1.5909,1.5883,1.5867,1.5841,1.582,1.5803,1.5773,1.5735,1.5716,1.5701,1.5689,1.5691,1.5691,1.5692,1.5696,1.5663,1.5696,1.5696,1.5696,1.5695,1.5695,0,1.6052,1.6032,1.6017,1.5988,1.5974,1.5951,1.5926,1.5916,1.5902,1.5877,1.5859,1.5836,1.5816,1.5782,1.5758,1.5752,1.574,1.5747,1.5747,1.5743,1.5708,1.571,1.5758,1.5758,1.5758,1.5758,1.5758,1.5758,1.6075,1.6067,1.6048,1.6029,1.6008,1.5991,1.5979,1.596,1.594,1.5917,1.59,1.5878,1.5849,1.5823,1.5802,1.5792,1.5785,1.5796,1.5783,1.5751,1.5746,1.574,1.5741,1.5795,1.5795,1.5819,1.5819,1.5819]}]]